Weather History for Falfurrias, TX

Change the Weather History Date:

Saturday, November 3, 2012

  Actual Average (KNQI) Record (KNQI)
Temperature  
Mean Temperature 76 °F -  
Max Temperature 88 °F 77 °F 91 °F (2012)
Min Temperature 63 °F 57 °F 39 °F (1999)
Cooling Degree Days 10    
Growing Degree Days 26 (Base 50)    
Moisture  
Dew Point 61 °F    
Average Humidity 68    
Maximum Humidity 92    
Minimum Humidity 27    
Precipitation  
Precipitation 0.00 in - - ()
Sea Level Pressure  
Sea Level Pressure 29.98 in    
Wind  
Wind Speed 7 mph (SE)    
Max Wind Speed 15 mph    
Max Gust Speed 22 mph    
Visibility 10 miles    
Events      
Averages and records for this station are not official NWS values.
T = Trace of Precipitation, MM = Missing Value Source: NWS Daily Summary

Daily Weather History Graph

Daily Weather History Graph

Search for Another Location

Airport:

Trip Planner

Search our weather history database for the weather conditions in past years. The results will help you decide how hot, cold, wet, or windy it might be!

Date:

Astronomy

Nov. 03, 2012 Rise Set
Actual Time 7:44 AM CDT 6:47 PM CDT
Civil Twilight 7:20 AM CDT 7:11 PM CDT
Nautical Twilight 6:52 AM CDT 7:39 PM CDT
Astronomical Twilight 6:25 AM CDT 8:06 PM CDT
Moon 10:37 PM CDT (11/3) 11:40 AM CDT (11/3)
Length of Visible Light 11h 51m
Length of Day
11h 02m
Waning Gibbous, 80% of the Moon is Illuminated
Nov 3
Waning Gibbous
Nov 6
Last Quarter
Nov 13
New
Nov 20
First Quarter
Nov 28
Full

Hourly Weather History & Observations

Time (CDT) Temp. Heat Index Dew Point Humidity Pressure Visibility Wind Dir Wind Speed Gust Speed Precip Events Conditions
12:15 AM 70.9 °F - 63.5 °F 77% 29.98 in 10.0 mi SE 6.9 mph - N/A   Clear
12:35 AM 70.7 °F - 63.5 °F 78% 29.98 in 10.0 mi SSE 6.9 mph - N/A   Clear
12:55 AM 69.8 °F - 63.3 °F 80% 29.97 in 10.0 mi SE 5.8 mph - N/A   Clear
1:15 AM 69.4 °F - 63.5 °F 81% 29.97 in 10.0 mi SE 4.6 mph - N/A   Clear
1:35 AM 68.2 °F - 63.1 °F 84% 29.97 in 10.0 mi SSE 3.5 mph - N/A   Clear
1:55 AM 68.0 °F - 63.0 °F 84% 29.96 in 10.0 mi SE 3.5 mph - N/A   Clear
2:15 AM 67.3 °F - 63.0 °F 86% 29.96 in 10.0 mi SE 4.6 mph - N/A   Clear
2:35 AM 66.6 °F - 62.6 °F 87% 29.97 in 10.0 mi SE 4.6 mph - N/A   Clear
2:55 AM 66.7 °F - 62.8 °F 87% 29.96 in 10.0 mi SE 4.6 mph - N/A   Clear
3:15 AM 66.6 °F - 62.6 °F 87% 29.96 in 10.0 mi ESE 3.5 mph - N/A   Clear
3:35 AM 65.3 °F - 62.1 °F 89% 29.96 in 10.0 mi East 3.5 mph - N/A   Clear
3:55 AM 64.4 °F - 61.3 °F 90% 29.96 in 10.0 mi East 4.6 mph - N/A   Clear
4:15 AM 64.6 °F - 61.9 °F 91% 29.96 in 10.0 mi SE 4.6 mph - N/A   Clear
4:35 AM 64.9 °F - 62.1 °F 90% 29.97 in 10.0 mi ESE 3.5 mph - N/A   Clear
5:15 AM 64.4 °F - 61.7 °F 91% 29.97 in 10.0 mi East 4.6 mph - N/A   Clear
5:35 AM 64.6 °F - 61.9 °F 91% 29.96 in 10.0 mi ESE 5.8 mph - N/A   Clear
5:55 AM 64.4 °F - 61.7 °F 91% 29.97 in 10.0 mi ESE 4.6 mph - N/A   Clear
6:15 AM 64.0 °F - 61.7 °F 92% 29.97 in 10.0 mi ESE 3.5 mph - N/A   Clear
6:35 AM 64.4 °F - 61.7 °F 91% 29.97 in 10.0 mi SE 3.5 mph - N/A   Clear
6:55 AM 64.2 °F - 61.5 °F 91% 29.98 in 10.0 mi ESE 4.6 mph - N/A   Clear
7:15 AM 64.4 °F - 61.7 °F 91% 29.98 in 10.0 mi ESE 3.5 mph - N/A   Clear
7:35 AM 63.7 °F - 61.2 °F 91% 29.98 in 10.0 mi ESE 3.5 mph - N/A   Clear
8:15 AM 64.6 °F - 61.7 °F 90% 30.00 in 10.0 mi SSE 3.5 mph - N/A   Clear
8:35 AM 64.8 °F - 61.9 °F 90% 30.01 in 10.0 mi Calm Calm - N/A   Clear
8:55 AM 66.2 °F - 62.6 °F 88% 30.01 in 10.0 mi ESE 3.5 mph - N/A   Clear
9:15 AM 68.0 °F - 63.3 °F 85% 30.02 in 10.0 mi Calm Calm - N/A   Clear
9:35 AM 70.9 °F - 63.7 °F 78% 30.03 in 10.0 mi SSE 6.9 mph - N/A   Clear
9:55 AM 73.0 °F - 64.2 °F 74% 30.03 in 10.0 mi SSE 8.1 mph - N/A   Clear
10:15 AM 74.7 °F - 64.2 °F 70% 30.03 in 10.0 mi South 8.1 mph - N/A   Clear
10:35 AM 76.1 °F - 64.0 °F 66% 30.04 in 10.0 mi SSE 10.4 mph - N/A   Clear
10:55 AM 77.9 °F - 63.5 °F 61% 30.04 in 10.0 mi SSE 12.7 mph 20.7 mph N/A   Clear
11:15 AM 79.3 °F - 62.2 °F 56% 30.04 in 10.0 mi SSE 11.5 mph 16.1 mph N/A   Clear
11:35 AM 81.1 °F 81.9 °F 60.8 °F 50% 30.04 in 10.0 mi SSE 12.7 mph 20.7 mph N/A   Scattered Clouds
11:55 AM 81.7 °F 81.9 °F 59.2 °F 46% 30.03 in 10.0 mi South 11.5 mph - N/A   Scattered Clouds
12:15 PM 83.1 °F 82.4 °F 56.7 °F 40% 30.02 in 10.0 mi SE 12.7 mph 18.4 mph N/A   Scattered Clouds
12:55 PM 84.9 °F 83.4 °F 54.3 °F 35% 30.00 in 10.0 mi SSE 12.7 mph 21.9 mph N/A   Clear
1:15 PM 85.5 °F 83.7 °F 53.2 °F 33% 29.99 in 10.0 mi SE 5.8 mph - N/A   Clear
1:35 PM 85.6 °F 83.8 °F 53.4 °F 33% 29.98 in 10.0 mi SSE 9.2 mph 18.4 mph N/A   Clear
2:15 PM 87.8 °F - 51.4 °F 29% 29.96 in 10.0 mi South 10.4 mph - N/A   Scattered Clouds
2:35 PM 86.2 °F - 50.9 °F 30% 29.95 in 7.0 mi SSE 11.5 mph 17.3 mph N/A   Scattered Clouds
2:55 PM 87.4 °F - 50.4 °F 28% 29.94 in 10.0 mi South 9.2 mph - N/A   Scattered Clouds
3:15 PM 88.3 °F - 51.6 °F 28% 29.93 in 10.0 mi SSE 11.5 mph - N/A   Scattered Clouds
3:35 PM 88.7 °F - 51.8 °F 28% 29.92 in 10.0 mi SE 9.2 mph - N/A   Mostly Cloudy
4:15 PM 88.7 °F - 50.4 °F 27% 29.91 in 10.0 mi South 9.2 mph - N/A   Mostly Cloudy
4:35 PM 87.1 °F - 50.2 °F 28% 29.91 in 10.0 mi South 5.8 mph - N/A   Scattered Clouds
4:55 PM 88.9 °F - 50.9 °F 27% 29.91 in 10.0 mi South 11.5 mph 16.1 mph N/A   Mostly Cloudy
5:15 PM 88.3 °F 87.3 °F 58.1 °F 36% 29.91 in 10.0 mi ESE 9.2 mph - N/A   Mostly Cloudy
5:35 PM 84.4 °F 85.2 °F 62.6 °F 48% 29.91 in 10.0 mi East 12.7 mph 19.6 mph N/A   Overcast
6:15 PM 81.3 °F 83.2 °F 65.3 °F 58% 29.92 in 10.0 mi ESE 15.0 mph 19.6 mph N/A   Clear
6:55 PM 80.2 °F 82.3 °F 66.2 °F 62% 29.94 in 10.0 mi ESE 12.7 mph 18.4 mph N/A   Overcast
7:15 PM 79.7 °F - 65.8 °F 62% 29.95 in 10.0 mi East 10.4 mph - N/A   Mostly Cloudy
7:35 PM 79.0 °F - 65.5 °F 63% 29.96 in 10.0 mi East 12.7 mph - N/A   Scattered Clouds
8:15 PM 77.7 °F - 65.5 °F 66% 29.97 in 10.0 mi East 6.9 mph - N/A   Clear
8:35 PM 77.0 °F - 66.0 °F 69% 29.98 in 10.0 mi East 9.2 mph - N/A   Clear
9:15 PM 75.7 °F - 66.7 °F 74% 29.98 in 10.0 mi ESE 9.2 mph - N/A   Clear
9:35 PM 75.4 °F - 66.7 °F 74% 29.98 in 10.0 mi SE 9.2 mph - N/A   Clear
9:55 PM 75.2 °F - 66.7 °F 75% 29.99 in 10.0 mi SE 6.9 mph - N/A   Clear
10:15 PM 74.8 °F - 66.9 °F 76% 29.99 in 10.0 mi ESE 6.9 mph - N/A   Clear
10:35 PM 74.5 °F - 67.1 °F 78% 30.00 in 10.0 mi SE 9.2 mph - N/A   Clear
10:55 PM 74.3 °F - 67.1 °F 78% 30.00 in 10.0 mi SE 8.1 mph - N/A   Clear
11:15 PM 73.8 °F - 66.7 °F 79% 30.01 in 10.0 mi SE 5.8 mph - N/A   Clear
11:35 PM 73.4 °F - 66.6 °F 79% 30.01 in 10.0 mi ESE 5.8 mph - N/A   Clear
11:55 PM 73.0 °F - 66.6 °F 80% 30.01 in 10.0 mi SE 4.6 mph - N/A   Clear